When you browse on this site, cookies collect data to enhance your experience and personalize the content and advertising you see.
Visit our Privacy Policy to learn more. By continuing to use the site, you agree to this use of cookies and data.
  • In Deutschland
  • Länderverzeichnis
  • Für 7 Tage
  • Wassertemperatur
  • Wetterkarte
  • Widgets
  • user-avatar
    Anmelden

    Stündliche Wetter Exeter

    Heute, 15 September, Sonntag

    Zeit Temperatur Niederschläge Wind Luftdruck Luftfeuchtigkeit
    00:00 +12°C° 0 mm 2 m/S 763 mmHg 86%
    01:00 +12°C° 0 mm 2 m/S 763 mmHg 87%
    02:00 +12°C° 0 mm 2 m/S 762 mmHg 88%
    03:00 +10°C° 0 mm 2 m/S 762 mmHg 89%
    04:00 +10°C° 0 mm 2 m/S 762 mmHg 90%
    05:00 +10°C° 0 mm 2 m/S 762 mmHg 91%
    06:00 +10°C° 0 mm 2 m/S 762 mmHg 92%
    07:00 +13°C° 0 mm 2 m/S 762 mmHg 87%
    08:00 +15°C° 0 mm 2 m/S 762 mmHg 82%
    09:00 +17°C° 0 mm 2 m/S 762 mmHg 77%
    10:00 +18°C° 0 mm 2 m/S 762 mmHg 74%
    11:00 +20°C° 0 mm 2 m/S 762 mmHg 71%
    12:00 +21°C° 0 mm 2 m/S 761 mmHg 68%
    13:00 +21°C° 0 mm 3 m/S 761 mmHg 71%
    14:00 +21°C° 0 mm 3 m/S 761 mmHg 73%
    15:00 +21°C° 0 mm 3 m/S 761 mmHg 75%
    16:00 +20°C° 0 mm 3 m/S 760 mmHg 80%
    17:00 +18°C° 0 mm 3 m/S 760 mmHg 85%
    18:00 +17°C° 0 mm 3 m/S 760 mmHg 90%
    19:00 +16°C° 0 mm 2 m/S 760 mmHg 92%
    20:00 +16°C° 0 mm 2 m/S 760 mmHg 94%
    21:00 +15°C° 0 mm 2 m/S 760 mmHg 96%
    22:00 +14°C° 0 mm 3 m/S 760 mmHg 95%
    23:00 +16°C° 0 mm 3 m/S 760 mmHg 94%

    Morgen, 16 September, Montag

    Zeit Temperatur Niederschläge Wind Luftdruck Luftfeuchtigkeit
    00:00 +16°C° 0 mm 3 m/S 760 mmHg 93%
    01:00 +16°C° 0 mm 3 m/S 759 mmHg 93%
    02:00 +16°C° 0 mm 3 m/S 759 mmHg 92%
    03:00 +16°C° 0 mm 3 m/S 759 mmHg 91%
    04:00 +16°C° 0 mm 3 m/S 758 mmHg 91%
    05:00 +16°C° 0 mm 3 m/S 758 mmHg 92%
    06:00 +16°C° 0 mm 3 m/S 758 mmHg 92%
    07:00 +17°C° 0 mm 3 m/S 758 mmHg 90%
    08:00 +17°C° 0 mm 3 m/S 759 mmHg 88%
    09:00 +18°C° 0 mm 4 m/S 759 mmHg 87%
    10:00 +19°C° 0 mm 4 m/S 759 mmHg 85%
    11:00 +19°C° 0 mm 3 m/S 759 mmHg 84%
    12:00 +20°C° 0 mm 3 m/S 759 mmHg 83%
    13:00 +20°C° 0 mm 3 m/S 759 mmHg 81%
    14:00 +20°C° 0 mm 3 m/S 759 mmHg 80%
    15:00 +20°C° 0 mm 3 m/S 759 mmHg 79%
    16:00 +19°C° 0 mm 3 m/S 759 mmHg 82%
    17:00 +18°C° 0 mm 3 m/S 759 mmHg 85%
    18:00 +17°C° 0 mm 3 m/S 759 mmHg 88%
    19:00 +15°C° 0 mm 4 m/S 759 mmHg 89%
    20:00 +14°C° 0 mm 4 m/S 760 mmHg 90%
    21:00 +13°C° 0 mm 4 m/S 760 mmHg 91%
    22:00 +12°C° 0 mm 4 m/S 760 mmHg 89%
    23:00 +11°C° 0 mm 4 m/S 760 mmHg 86%

    übermorgen, 17 September, Dienstag

    Zeit Temperatur Niederschläge Wind Luftdruck Luftfeuchtigkeit
    00:00 +10°C° 0 mm 4 m/S 760 mmHg 84%
    01:00 +10°C° 0 mm 4 m/S 760 mmHg 86%
    02:00 +8°C° 0 mm 4 m/S 760 mmHg 88%
    03:00 +8°C° 0 mm 4 m/S 760 mmHg 90%
    04:00 +8°C° 0 mm 4 m/S 761 mmHg 91%
    05:00 +7°C° 0 mm 4 m/S 761 mmHg 91%
    06:00 +7°C° 0 mm 4 m/S 761 mmHg 92%
    07:00 +10°C° 0 mm 4 m/S 761 mmHg 86%
    08:00 +11°C° 0 mm 4 m/S 761 mmHg 80%
    09:00 +13°C° 0 mm 4 m/S 762 mmHg 74%
    10:00 +14°C° 0 mm 4 m/S 762 mmHg 70%
    11:00 +15°C° 0 mm 4 m/S 762 mmHg 67%
    12:00 +17°C° 0 mm 4 m/S 762 mmHg 63%
    13:00 +17°C° 0 mm 4 m/S 762 mmHg 63%
    14:00 +17°C° 0 mm 4 m/S 761 mmHg 63%
    15:00 +17°C° 0 mm 4 m/S 761 mmHg 63%
    16:00 +15°C° 0 mm 4 m/S 761 mmHg 68%
    17:00 +14°C° 0 mm 3 m/S 761 mmHg 73%
    18:00 +13°C° 0 mm 3 m/S 761 mmHg 78%
    19:00 +12°C° 0 mm 3 m/S 761 mmHg 80%
    20:00 +11°C° 0 mm 3 m/S 762 mmHg 82%
    21:00 +11°C° 0 mm 3 m/S 762 mmHg 84%
    22:00 +10°C° 0 mm 3 m/S 762 mmHg 85%
    23:00 +10°C° 0 mm 3 m/S 762 mmHg 85%

    18 September, Mittwoch

    Zeit Temperatur Niederschläge Wind Luftdruck Luftfeuchtigkeit
    00:00 +10°C° 0 mm 3 m/S 762 mmHg 86%
    01:00 +9°C° 0 mm 3 m/S 762 mmHg 86%
    02:00 +9°C° 0 mm 3 m/S 762 mmHg 87%
    03:00 +9°C° 0 mm 2 m/S 762 mmHg 88%
    04:00 +8°C° 0 mm 2 m/S 762 mmHg 88%
    05:00 +8°C° 0 mm 2 m/S 762 mmHg 88%
    06:00 +8°C° 0 mm 2 m/S 762 mmHg 88%
    07:00 +10°C° 0 mm 2 m/S 763 mmHg 82%
    08:00 +13°C° 0 mm 1 m/S 763 mmHg 76%
    09:00 +15°C° 0 mm 1 m/S 763 mmHg 70%
    10:00 +16°C° 0 mm 1 m/S 763 mmHg 67%
    11:00 +18°C° 0 mm 1 m/S 763 mmHg 63%
    12:00 +19°C° 0 mm 1 m/S 763 mmHg 60%
    13:00 +20°C° 0 mm 1 m/S 763 mmHg 60%
    14:00 +19°C° 0 mm 2 m/S 763 mmHg 61%
    15:00 +19°C° 0 mm 2 m/S 763 mmHg 62%
    16:00 +18°C° 0 mm 2 m/S 763 mmHg 68%
    17:00 +16°C° 0 mm 2 m/S 763 mmHg 74%
    18:00 +15°C° 0 mm 2 m/S 763 mmHg 80%
    19:00 +14°C° 0 mm 2 m/S 763 mmHg 83%
    20:00 +13°C° 0 mm 2 m/S 763 mmHg 85%
    21:00 +13°C° 0 mm 2 m/S 764 mmHg 88%
    22:00 +13°C° 0 mm 2 m/S 764 mmHg 89%
    23:00 +12°C° 0 mm 2 m/S 764 mmHg 90%

    19 September, Donnerstag

    Zeit Temperatur Niederschläge Wind Luftdruck Luftfeuchtigkeit
    00:00 +12°C° 0 mm 2 m/S 764 mmHg 92%
    01:00 +12°C° 0 mm 2 m/S 764 mmHg 93%
    02:00 +12°C° 0 mm 2 m/S 764 mmHg 94%
    03:00 +12°C° 0 mm 2 m/S 764 mmHg 95%
    04:00 +12°C° 0 mm 2 m/S 764 mmHg 95%
    05:00 +12°C° 0 mm 2 m/S 764 mmHg 95%
    06:00 +12°C° 0 mm 2 m/S 765 mmHg 95%
    07:00 +12°C° 0 mm 3 m/S 765 mmHg 91%
    08:00 +13°C° 0 mm 4 m/S 765 mmHg 88%
    09:00 +14°C° 0 mm 4 m/S 766 mmHg 84%
    10:00 +15°C° 0 mm 4 m/S 766 mmHg 79%
    11:00 +17°C° 0 mm 4 m/S 766 mmHg 73%
    12:00 +18°C° 0 mm 4 m/S 766 mmHg 68%
    13:00 +18°C° 0 mm 4 m/S 766 mmHg 67%
    14:00 +18°C° 0 mm 4 m/S 766 mmHg 66%
    15:00 +18°C° 0 mm 4 m/S 766 mmHg 65%
    16:00 +16°C° 0 mm 3 m/S 766 mmHg 70%
    17:00 +15°C° 0 mm 2 m/S 766 mmHg 75%
    18:00 +14°C° 0 mm 2 m/S 766 mmHg 80%
    19:00 +13°C° 0 mm 2 m/S 766 mmHg 80%
    20:00 +12°C° 0 mm 2 m/S 767 mmHg 80%
    21:00 +10°C° 0 mm 2 m/S 767 mmHg 81%
    22:00 +10°C° 0 mm 2 m/S 767 mmHg 81%
    23:00 +9°C° 0 mm 2 m/S 767 mmHg 80%

    20 September, Freitag

    Zeit Temperatur Niederschläge Wind Luftdruck Luftfeuchtigkeit
    00:00 +9°C° 0 mm 2 m/S 767 mmHg 80%
    01:00 +9°C° 0 mm 3 m/S 766 mmHg 83%
    02:00 +9°C° 0 mm 3 m/S 766 mmHg 86%
    03:00 +9°C° 0 mm 3 m/S 766 mmHg 89%
    04:00 +9°C° 0 mm 3 m/S 766 mmHg 89%
    05:00 +8°C° 0 mm 3 m/S 765 mmHg 90%
    06:00 +8°C° 0 mm 3 m/S 765 mmHg 91%
    07:00 +10°C° 0 mm 4 m/S 765 mmHg 86%
    08:00 +12°C° 0 mm 4 m/S 765 mmHg 81%
    09:00 +14°C° 0 mm 5 m/S 765 mmHg 76%
    10:00 +14°C° 0 mm 6 m/S 764 mmHg 74%
    11:00 +15°C° 0 mm 6 m/S 764 mmHg 71%
    12:00 +15°C° 0 mm 7 m/S 763 mmHg 69%
    13:00 +15°C° 0 mm 6 m/S 763 mmHg 69%
    14:00 +15°C° 0 mm 6 m/S 762 mmHg 68%
    15:00 +15°C° 0 mm 6 m/S 761 mmHg 68%
    16:00 +14°C° 0 mm 5 m/S 761 mmHg 73%
    17:00 +13°C° 0 mm 5 m/S 760 mmHg 77%
    18:00 +12°C° 0 mm 4 m/S 760 mmHg 81%
    19:00 +12°C° 0 mm 4 m/S 759 mmHg 83%
    20:00 +11°C° 0 mm 4 m/S 759 mmHg 86%
    21:00 +11°C° 0 mm 4 m/S 758 mmHg 88%
    22:00 +11°C° 0 mm 4 m/S 758 mmHg 88%
    23:00 +12°C° 0 mm 4 m/S 757 mmHg 87%
    Mehr zeigen